CZ-6A DEB, 61159

Orbit data source: Space-Track

CZ-6A DEB, 61159 is space debris in LEO originally from a launch on Tue, 06 Aug 2024 UTC launched from the Taiyaun Space Center, China (TSC). Debris objects in space refer to the collection of defunct objects orbiting the Earth. Examples of debris include non-operational satellites, rocket bodies, and fragments generated from explosions, collisions, or faulty payload assembly.

Loading next visibility...
Identifier
61159, 2024-140RD
Orbit
LEO
Country
Flag of CNCN / PRC
Related business
Manufacturer
SAST
Mission
Spacecraft
Bus & Motor
Unknown
Mass
Unknown
Launch date (UTC)
2024-08-06 (2 years ago)
Launch vehicle
Unknown
Launch site
Taiyaun Space Center, China (TSC)
Object type
Payload
Rocket body
Debris
Shape & HBR
Unknown shape, 0.1 m
Radar Cross Section
Small (<0.1 m²)

Expand to show TLE details & history
Last TLE update: 15 hours ago

TLE from 15 hours ago
0 CZ-6A DEB
1 61159U 24140RD  26171.30000742  .00000850  00000-0  23898-3 0  9992
2 61159  88.9643 268.2944 0053452 292.7670  66.7890 14.44245316 96251
Epoch: 2026-06-20T07:12Z
TLE epoch observation values (Epoch: 2026-06-20T07:12:00.641Z)
Latitude
-0.00007°
Longitude
-108.22489°
Altitude
732.758 km
Speed
7.496 km/s
True Right ascension
17h 53m 10s
True Declination
0° 00' 00"
Sunlit
Object was in full shadow at epoch
Visualization orbit readout
Latitude
Unknown
Longitude
Unknown
Altitude
Unknown
Speed
Unknown
Apparent Right ascension
Unknown
Apparent Declination
Unknown
Sunlit
N/A
Visualization observer readout
Local Sidereal Time
08:42:18
Azimuth
Unknown
Elevation
Unknown
Doppler factor
Unknown
Orbital elements
Apogee altitude
779.478 km
Perigee altitude
703.367 km
Semi-major axis
7,119.56 km
Eccentricity
0.00535
Inclination
88.9643°
RAAN
268.2944°
Arg. of periapsis
292.767°
True anomaly
67.35341°
Mean anomaly
66.789°
Eccentric anomaly
67.07106°
Mean motion
3.61296 °/min
Orbital period
99.64 mins
BSTAR
0.00023898
Loading maneuver chart data...
Computing Atmospheric mass density...
Loading historical data...
Loading historical data...
Loading historical data...
Loading historical data...
Loading historical data...
Loading historical data...
Loading historical data...

Documentation

Showing up to 5 results
|